TimeCDT,TemperatureF,Dew PointF,Humidity,Sea Level PressureIn,VisibilityMPH,Wind Direction,Wind SpeedMPH,Gust SpeedMPH,PrecipitationIn,Events,Conditions,WindDirDegrees,DateUTC
12:52 AM,57.9,39.9,51,29.97,10.0,SE,13.8,-,0.00,,Overcast,130,2013-10-15 05:52:00
1:52 AM,59.0,44.1,58,29.94,10.0,SE,12.7,-,N/A,,Overcast,130,2013-10-15 06:52:00
2:52 AM,59.0,48.9,69,29.93,10.0,SE,12.7,20.7,0.00,,Overcast,140,2013-10-15 07:52:00
3:52 AM,57.0,51.1,81,29.92,9.0,SSE,9.2,-,0.01,Rain,Rain,150,2013-10-15 08:52:00
4:17 AM,55.4,53.6,94,29.91,10.0,SE,6.9,-,0.02,Rain,Light Rain,140,2013-10-15 09:17:00
4:29 AM,55.4,53.6,94,29.90,10.0,SE,10.4,-,0.02,,Overcast,130,2013-10-15 09:29:00
4:52 AM,55.9,53.1,90,29.86,10.0,ESE,15.0,-,0.02,Rain,Light Rain,120,2013-10-15 09:52:00
5:50 AM,57.2,55.4,94,29.87,10.0,SSE,10.4,-,0.00,Rain,Light Rain,160,2013-10-15 10:50:00
5:52 AM,57.0,55.0,93,29.86,10.0,SSE,9.2,-,0.00,Rain,Light Rain,150,2013-10-15 10:52:00
6:48 AM,59.0,57.2,94,29.85,10.0,South,9.2,-,0.01,,Overcast,180,2013-10-15 11:48:00
6:52 AM,59.0,57.0,93,29.85,10.0,South,10.4,-,0.01,Rain,Light Rain,170,2013-10-15 11:52:00
7:52 AM,59.0,57.9,96,29.85,10.0,South,5.8,-,0.00,Rain,Light Rain,190,2013-10-15 12:52:00
8:52 AM,60.1,59.0,96,29.85,10.0,South,11.5,-,0.00,,Overcast,190,2013-10-15 13:52:00
9:23 AM,60.8,60.8,100,29.84,10.0,South,10.4,-,N/A,,Overcast,190,2013-10-15 14:23:00
9:38 AM,62.6,59.0,88,29.84,10.0,SSW,11.5,-,N/A,,Overcast,200,2013-10-15 14:38:00
9:52 AM,62.1,59.0,90,29.83,10.0,SW,9.2,-,N/A,,Overcast,220,2013-10-15 14:52:00
10:04 AM,57.2,53.6,88,29.84,10.0,West,13.8,23.0,N/A,,Overcast,270,2013-10-15 15:04:00
10:14 AM,59.0,55.4,88,29.84,10.0,West,13.8,-,N/A,,Mostly Cloudy,270,2013-10-15 15:14:00
10:32 AM,57.2,51.8,82,29.85,10.0,West,17.3,-,N/A,,Overcast,260,2013-10-15 15:32:00
10:52 AM,57.0,52.0,83,29.86,10.0,West,13.8,-,N/A,,Overcast,270,2013-10-15 15:52:00
11:52 AM,57.0,48.9,74,29.86,10.0,West,16.1,21.9,N/A,,Overcast,260,2013-10-15 16:52:00
12:52 PM,59.0,46.9,64,29.85,10.0,West,17.3,25.3,N/A,,Mostly Cloudy,260,2013-10-15 17:52:00
1:08 PM,60.8,46.4,59,29.85,10.0,West,16.1,24.2,N/A,,Scattered Clouds,260,2013-10-15 18:08:00
1:52 PM,59.0,46.0,62,29.85,10.0,West,16.1,26.5,N/A,,Mostly Cloudy,270,2013-10-15 18:52:00
2:52 PM,60.1,45.0,57,29.84,10.0,West,15.0,23.0,N/A,,Scattered Clouds,270,2013-10-15 19:52:00
3:52 PM,59.0,43.0,55,29.85,10.0,West,20.7,25.3,N/A,,Mostly Cloudy,270,2013-10-15 20:52:00
4:52 PM,57.9,42.1,56,29.86,10.0,West,13.8,-,N/A,,Partly Cloudy,270,2013-10-15 21:52:00
5:52 PM,55.0,41.0,59,29.88,10.0,West,15.0,-,N/A,,Scattered Clouds,280,2013-10-15 22:52:00
6:52 PM,52.0,39.9,63,29.90,10.0,West,12.7,25.3,N/A,,Overcast,260,2013-10-15 23:52:00
7:52 PM,52.0,39.9,63,29.91,10.0,WSW,16.1,20.7,N/A,,Overcast,240,2013-10-16 00:52:00
8:40 PM,51.8,41.0,67,29.91,10.0,WSW,13.8,21.9,N/A,,Overcast,250,2013-10-16 01:40:00
8:52 PM,52.0,41.0,66,29.91,10.0,WSW,16.1,23.0,N/A,,Overcast,250,2013-10-16 01:52:00
9:52 PM,51.1,42.1,71,29.91,10.0,WSW,16.1,28.8,N/A,,Overcast,250,2013-10-16 02:52:00
10:14 PM,51.8,42.8,71,29.91,10.0,WSW,15.0,21.9,N/A,,Overcast,250,2013-10-16 03:14:00
10:22 PM,51.8,42.8,71,29.91,10.0,WSW,16.1,21.9,N/A,,Overcast,240,2013-10-16 03:22:00
10:52 PM,50.0,43.0,77,29.92,10.0,WSW,16.1,27.6,N/A,,Overcast,250,2013-10-16 03:52:00
11:52 PM,50.0,43.0,77,29.92,10.0,West,11.5,18.4,N/A,,Overcast,260,2013-10-16 04:52:00